Time,TemperatureF,DewpointF,PressureIn,WindDirection,WindDirectionDegrees,WindSpeedMPH,WindSpeedGustMPH,Humidity,HourlyPrecipIn,Conditions,Clouds,dailyrainin,SoftwareType,DateUTC
2013-07-14 00:02:00,53.0,53.0,30.15,WNW,303,2.0,4.0,100,0.00,,,0.00,,2013-07-14 07:02:00,
2013-07-14 00:11:00,53.0,53.0,30.14,NW,310,1.0,4.0,100,0.00,,,0.00,,2013-07-14 07:11:00,
2013-07-14 00:32:00,53.0,53.0,30.15,NNW,338,2.0,4.0,100,0.00,,,0.00,,2013-07-14 07:32:00,
2013-07-14 00:42:00,53.0,53.0,30.15,NW,312,4.0,6.0,100,0.00,,,0.00,,2013-07-14 07:42:00,
2013-07-14 00:53:00,53.0,53.0,30.14,NW,305,2.0,4.0,100,0.00,,,0.00,,2013-07-14 07:53:00,
2013-07-14 01:01:00,53.0,53.0,30.14,NW,305,2.0,4.0,100,0.00,,,0.00,,2013-07-14 08:01:00,
2013-07-14 01:11:00,52.0,52.0,30.15,NNE,20,1.0,3.0,100,0.00,,,0.00,,2013-07-14 08:11:00,
2013-07-14 01:22:00,52.0,52.0,30.14,ENE,66,0.0,3.0,100,0.00,,,0.00,,2013-07-14 08:22:00,
2013-07-14 01:32:00,52.0,52.0,30.14,ENE,66,0.0,3.0,100,0.00,,,0.00,,2013-07-14 08:32:00,
2013-07-14 01:42:00,52.0,52.0,30.15,NE,51,1.0,3.0,100,0.00,,,0.00,,2013-07-14 08:42:00,
2013-07-14 01:53:00,52.0,52.0,30.15,NE,51,0.0,0.0,100,0.00,,,0.00,,2013-07-14 08:53:00,
2013-07-14 02:01:00,52.0,52.0,30.15,NE,51,0.0,0.0,100,0.00,,,0.00,,2013-07-14 09:01:00,
2013-07-14 02:11:00,52.0,52.0,30.15,NE,51,0.0,1.0,100,0.00,,,0.00,,2013-07-14 09:11:00,
2013-07-14 02:22:00,51.0,51.0,30.14,NE,51,0.0,1.0,100,0.00,,,0.00,,2013-07-14 09:22:00,
2013-07-14 02:32:00,51.0,51.0,30.14,NE,51,0.0,1.0,100,0.00,,,0.00,,2013-07-14 09:32:00,
2013-07-14 02:42:00,51.0,51.0,30.14,ENE,57,0.0,2.0,100,0.00,,,0.00,,2013-07-14 09:42:00,
2013-07-14 02:52:00,51.0,51.0,30.14,East,86,0.0,2.0,100,0.00,,,0.00,,2013-07-14 09:52:00,
2013-07-14 03:01:00,51.0,51.0,30.14,East,86,0.0,2.0,100,0.00,,,0.00,,2013-07-14 10:01:00,
2013-07-14 03:11:00,51.0,51.0,30.15,SE,132,2.0,3.0,100,0.00,,,0.00,,2013-07-14 10:11:00,
2013-07-14 03:21:00,52.0,52.0,30.14,SE,139,1.0,2.0,100,0.00,,,0.00,,2013-07-14 10:21:00,
2013-07-14 03:32:00,52.0,52.0,30.14,SE,139,1.0,2.0,100,0.00,,,0.00,,2013-07-14 10:32:00,
2013-07-14 03:42:00,51.0,51.0,30.14,SE,139,1.0,2.0,100,0.00,,,0.00,,2013-07-14 10:42:00,
2013-07-14 03:53:00,51.0,51.0,30.14,SE,139,0.0,2.0,100,0.00,,,0.00,,2013-07-14 10:53:00,
2013-07-14 04:01:00,51.0,51.0,30.14,SE,139,0.0,2.0,100,0.00,,,0.00,,2013-07-14 11:01:00,
2013-07-14 04:11:00,51.0,51.0,30.14,SE,136,0.0,1.0,100,0.00,,,0.00,,2013-07-14 11:11:00,
2013-07-14 04:21:00,50.0,50.0,30.14,SE,127,1.0,2.0,100,0.00,,,0.00,,2013-07-14 11:21:00,
2013-07-14 04:32:00,50.0,50.0,30.14,SE,127,1.0,2.0,100,0.00,,,0.00,,2013-07-14 11:32:00,
2013-07-14 04:43:00,49.0,49.0,30.14,East,92,0.0,2.0,100,0.00,,,0.00,,2013-07-14 11:43:00,
2013-07-14 04:53:00,49.0,49.0,30.14,East,86,0.0,2.0,100,0.00,,,0.00,,2013-07-14 11:53:00,
2013-07-14 05:02:00,49.0,49.0,30.14,East,86,0.0,2.0,100,0.00,,,0.00,,2013-07-14 12:02:00,
2013-07-14 05:11:00,48.0,48.0,30.14,East,86,0.0,1.0,100,0.00,,,0.00,,2013-07-14 12:11:00,
2013-07-14 05:22:00,48.0,48.0,30.14,East,86,0.0,1.0,100,0.00,,,0.00,,2013-07-14 12:22:00,
2013-07-14 05:32:00,48.0,48.0,30.14,East,86,0.0,1.0,100,0.00,,,0.00,,2013-07-14 12:32:00,
2013-07-14 05:43:00,48.0,48.0,30.14,East,86,1.0,2.0,100,0.00,,,0.00,,2013-07-14 12:43:00,
2013-07-14 05:52:00,48.0,48.0,30.14,NE,38,0.0,3.0,100,0.00,,,0.00,,2013-07-14 12:52:00,
2013-07-14 06:01:00,48.0,48.0,30.14,NE,38,0.0,3.0,100,0.00,,,0.00,,2013-07-14 13:01:00,
2013-07-14 06:11:00,48.0,48.0,30.14,NE,38,0.0,1.0,100,0.00,,,0.00,,2013-07-14 13:11:00,
2013-07-14 06:22:00,48.0,48.0,30.14,NE,38,0.0,1.0,100,0.00,,,0.00,,2013-07-14 13:22:00,
2013-07-14 06:32:00,48.0,48.0,30.14,NE,38,0.0,1.0,100,0.00,,,0.00,,2013-07-14 13:32:00,
2013-07-14 06:42:00,49.0,49.0,30.14,SE,140,1.0,3.0,100,0.00,,,0.00,,2013-07-14 13:42:00,
2013-07-14 06:53:00,49.0,49.0,30.15,SE,140,0.0,1.0,100,0.00,,,0.00,,2013-07-14 13:53:00,
2013-07-14 07:01:00,49.0,49.0,30.15,SE,140,0.0,1.0,100,0.00,,,0.00,,2013-07-14 14:01:00,
2013-07-14 07:11:00,49.0,49.0,30.15,SE,140,0.0,1.0,100,0.00,,,0.00,,2013-07-14 14:11:00,
2013-07-14 07:23:00,50.0,50.0,30.16,SE,140,0.0,1.0,100,0.00,,,0.00,,2013-07-14 14:23:00,
2013-07-14 07:33:00,50.0,50.0,30.16,SE,140,0.0,1.0,100,0.00,,,0.00,,2013-07-14 14:33:00,
2013-07-14 07:43:00,50.0,50.0,30.15,WSW,253,0.0,0.0,100,0.00,,,0.00,,2013-07-14 14:43:00,
2013-07-14 07:53:00,50.0,50.0,30.15,WSW,257,0.0,0.0,100,0.00,,,0.00,,2013-07-14 14:53:00,
2013-07-14 08:01:00,50.0,50.0,30.15,WSW,257,0.0,0.0,100,0.00,,,0.00,,2013-07-14 15:01:00,
2013-07-14 08:11:00,51.0,51.0,30.15,NW,304,4.0,5.0,100,0.00,,,0.00,,2013-07-14 15:11:00,
2013-07-14 08:22:00,52.0,52.0,30.15,NW,323,4.0,6.0,100,0.00,,,0.00,,2013-07-14 15:22:00,
2013-07-14 08:32:00,52.0,52.0,30.15,NW,323,4.0,6.0,100,0.00,,,0.00,,2013-07-14 15:32:00,
2013-07-14 08:42:00,52.0,52.0,30.15,WNW,294,4.0,8.0,100,0.00,,,0.00,,2013-07-14 15:42:00,
2013-07-14 08:53:00,52.0,52.0,30.15,NW,311,7.0,9.0,100,0.00,,,0.00,,2013-07-14 15:53:00,
2013-07-14 09:01:00,52.0,52.0,30.15,NW,311,7.0,9.0,100,0.00,,,0.00,,2013-07-14 16:01:00,
2013-07-14 09:11:00,52.0,52.0,30.16,WNW,284,6.0,11.0,100,0.00,,,0.00,,2013-07-14 16:11:00,
2013-07-14 09:22:00,53.0,53.0,30.16,WNW,286,5.0,10.0,100,0.00,,,0.00,,2013-07-14 16:22:00,
2013-07-14 09:32:00,53.0,53.0,30.16,WNW,286,5.0,10.0,100,0.00,,,0.00,,2013-07-14 16:32:00,
2013-07-14 09:43:00,53.0,53.0,30.15,WNW,294,9.0,12.0,100,0.00,,,0.00,,2013-07-14 16:43:00,
2013-07-14 09:53:00,52.0,52.0,30.15,WNW,302,7.0,14.0,100,0.00,,,0.00,,2013-07-14 16:53:00,
2013-07-14 10:02:00,52.0,52.0,30.15,WNW,302,7.0,14.0,100,0.00,,,0.00,,2013-07-14 17:02:00,
2013-07-14 10:11:00,53.0,53.0,30.15,NW,315,9.0,15.0,100,0.00,,,0.00,,2013-07-14 17:11:00,
2013-07-14 10:22:00,53.0,53.0,30.15,NNW,337,9.0,14.0,100,0.00,,,0.00,,2013-07-14 17:22:00,
2013-07-14 10:32:00,53.0,53.0,30.15,NNW,337,9.0,14.0,100,0.00,,,0.00,,2013-07-14 17:32:00,
2013-07-14 10:43:00,53.0,53.0,30.16,WNW,289,12.0,16.0,100,0.00,,,0.00,,2013-07-14 17:43:00,
2013-07-14 10:53:00,53.0,53.0,30.15,WNW,302,10.0,18.0,100,0.00,,,0.00,,2013-07-14 17:53:00,
2013-07-14 11:01:00,53.0,53.0,30.15,WNW,302,10.0,18.0,100,0.00,,,0.00,,2013-07-14 18:01:00,
2013-07-14 11:11:00,53.0,53.0,30.15,NW,317,14.0,18.0,100,0.00,,,0.00,,2013-07-14 18:11:00,
2013-07-14 11:21:00,54.0,54.0,30.15,NW,306,11.0,15.0,100,0.00,,,0.00,,2013-07-14 18:21:00,
2013-07-14 11:32:00,54.0,54.0,30.15,NW,306,11.0,15.0,100,0.00,,,0.00,,2013-07-14 18:32:00,
2013-07-14 11:42:00,55.0,55.0,30.14,NW,309,12.0,17.0,100,0.00,,,0.00,,2013-07-14 18:42:00,
2013-07-14 11:52:00,57.0,57.0,30.14,NW,315,13.0,19.0,100,0.00,,,0.00,,2013-07-14 18:52:00,
2013-07-14 12:01:00,57.0,57.0,30.14,NW,315,13.0,19.0,100,0.00,,,0.00,,2013-07-14 19:01:00,
2013-07-14 12:11:00,57.0,57.0,30.14,WNW,297,12.0,23.0,100,0.00,,,0.00,,2013-07-14 19:11:00,
2013-07-14 12:21:00,57.0,57.0,30.14,NW,317,14.0,21.0,100,0.00,,,0.00,,2013-07-14 19:21:00,
2013-07-14 12:32:00,57.0,57.0,30.14,NW,317,14.0,21.0,100,0.00,,,0.00,,2013-07-14 19:32:00,
2013-07-14 12:43:00,57.0,57.0,30.14,NW,308,15.0,25.0,100,0.00,,,0.00,,2013-07-14 19:43:00,
2013-07-14 12:52:00,57.0,57.0,30.13,WNW,300,18.0,24.0,100,0.00,,,0.00,,2013-07-14 19:52:00,
2013-07-14 13:01:00,57.0,57.0,30.13,WNW,300,18.0,24.0,100,0.00,,,0.00,,2013-07-14 20:01:00,
2013-07-14 13:11:00,58.0,58.0,30.13,WNW,299,13.0,23.0,100,0.00,,,0.00,,2013-07-14 20:11:00,
2013-07-14 13:22:00,59.0,59.0,30.13,NNW,341,16.0,25.0,100,0.00,,,0.00,,2013-07-14 20:22:00,
2013-07-14 13:32:00,59.0,59.0,30.13,NNW,341,16.0,25.0,100,0.00,,,0.00,,2013-07-14 20:32:00,
2013-07-14 13:43:00,60.0,60.0,30.14,WNW,288,13.0,22.0,100,0.00,,,0.00,,2013-07-14 20:43:00,
2013-07-14 13:53:00,59.0,59.0,30.13,NW,306,19.0,26.0,100,0.00,,,0.00,,2013-07-14 20:53:00,
2013-07-14 14:01:00,59.0,59.0,30.13,NW,306,19.0,26.0,100,0.00,,,0.00,,2013-07-14 21:01:00,
2013-07-14 14:11:00,60.0,60.0,30.13,North,349,11.0,23.0,100,0.00,,,0.00,,2013-07-14 21:11:00,
2013-07-14 14:22:00,60.0,60.0,30.13,North,349,11.0,23.0,100,0.00,,,0.00,,2013-07-14 21:22:00,
2013-07-14 14:32:00,59.0,59.0,30.12,NNW,336,18.0,25.0,100,0.00,,,0.00,,2013-07-14 21:32:00,
2013-07-14 14:42:00,59.0,59.0,30.12,NW,325,17.0,26.0,100,0.00,,,0.00,,2013-07-14 21:42:00,
2013-07-14 14:52:00,59.0,59.0,30.12,WNW,299,16.0,27.0,100,0.00,,,0.00,,2013-07-14 21:52:00,
2013-07-14 15:01:00,59.0,59.0,30.12,WNW,299,16.0,27.0,100,0.00,,,0.00,,2013-07-14 22:01:00,
2013-07-14 15:11:00,60.0,60.0,30.11,NNW,337,17.0,27.0,100,0.00,,,0.00,,2013-07-14 22:11:00,
2013-07-14 15:21:00,60.0,60.0,30.11,NNW,337,17.0,27.0,100,0.00,,,0.00,,2013-07-14 22:21:00,
2013-07-14 15:32:00,60.0,60.0,30.11,NW,306,13.0,28.0,100,0.00,,,0.00,,2013-07-14 22:32:00,
2013-07-14 15:42:00,59.0,59.0,30.11,North,5,18.0,27.0,100,0.00,,,0.00,,2013-07-14 22:42:00,
2013-07-14 15:53:00,60.0,60.0,30.11,NNW,336,18.0,26.0,100,0.00,,,0.00,,2013-07-14 22:53:00,
2013-07-14 16:01:00,60.0,60.0,30.11,NNW,336,18.0,26.0,100,0.00,,,0.00,,2013-07-14 23:01:00,
2013-07-14 16:11:00,59.0,59.0,30.11,WNW,291,15.0,28.0,100,0.00,,,0.00,,2013-07-14 23:11:00,
2013-07-14 16:22:00,60.0,60.0,30.10,NW,306,13.0,25.0,100,0.00,,,0.00,,2013-07-14 23:22:00,
2013-07-14 16:32:00,60.0,60.0,30.10,NW,306,13.0,25.0,100,0.00,,,0.00,,2013-07-14 23:32:00,
2013-07-14 16:42:00,59.0,59.0,30.10,North,355,18.0,29.0,100,0.00,,,0.00,,2013-07-14 23:42:00,
2013-07-14 16:53:00,59.0,59.0,30.10,NNW,333,17.0,28.0,100,0.00,,,0.00,,2013-07-14 23:53:00,
2013-07-14 17:02:00,59.0,59.0,30.10,NNW,333,17.0,28.0,100,0.00,,,0.00,,2013-07-15 00:02:00,
2013-07-14 17:11:00,59.0,59.0,30.09,NNW,344,14.0,27.0,100,0.00,,,0.00,,2013-07-15 00:11:00,
2013-07-14 17:21:00,59.0,59.0,30.09,WNW,300,16.0,25.0,100,0.00,,,0.00,,2013-07-15 00:21:00,
2013-07-14 17:32:00,59.0,59.0,30.09,WNW,300,16.0,25.0,100,0.00,,,0.00,,2013-07-15 00:32:00,
2013-07-14 17:43:00,59.0,59.0,30.09,NW,312,14.0,25.0,100,0.00,,,0.00,,2013-07-15 00:43:00,
2013-07-14 17:53:00,58.0,58.0,30.08,North,349,13.0,26.0,100,0.00,,,0.00,,2013-07-15 00:53:00,
2013-07-14 18:01:00,58.0,58.0,30.08,North,349,13.0,26.0,100,0.00,,,0.00,,2013-07-15 01:01:00,
2013-07-14 18:11:00,58.0,58.0,30.08,NW,324,15.0,27.0,100,0.00,,,0.00,,2013-07-15 01:11:00,
2013-07-14 18:22:00,58.0,58.0,30.08,NW,324,15.0,27.0,100,0.00,,,0.00,,2013-07-15 01:22:00,
2013-07-14 18:32:00,58.0,58.0,30.08,WNW,300,17.0,24.0,100,0.00,,,0.00,,2013-07-15 01:32:00,
2013-07-14 18:43:00,58.0,58.0,30.07,WNW,296,12.0,25.0,100,0.00,,,0.00,,2013-07-15 01:43:00,
2013-07-14 18:53:00,58.0,58.0,30.07,NW,313,18.0,27.0,100,0.00,,,0.00,,2013-07-15 01:53:00,
2013-07-14 19:02:00,58.0,58.0,30.07,NW,313,18.0,27.0,100,0.00,,,0.00,,2013-07-15 02:02:00,
2013-07-14 19:11:00,57.0,57.0,30.07,WNW,296,17.0,27.0,100,0.00,,,0.00,,2013-07-15 02:11:00,
2013-07-14 19:22:00,57.0,57.0,30.07,NNW,333,12.0,23.0,100,0.00,,,0.00,,2013-07-15 02:22:00,
2013-07-14 19:32:00,57.0,57.0,30.07,NNW,333,12.0,23.0,100,0.00,,,0.00,,2013-07-15 02:32:00,
2013-07-14 19:42:00,57.0,57.0,30.07,NNW,340,12.0,24.0,100,0.00,,,0.00,,2013-07-15 02:42:00,
2013-07-14 19:53:00,57.0,57.0,30.07,WNW,288,14.0,21.0,100,0.00,,,0.00,,2013-07-15 02:53:00,
2013-07-14 20:01:00,57.0,57.0,30.07,WNW,288,14.0,21.0,100,0.00,,,0.00,,2013-07-15 03:01:00,
2013-07-14 20:11:00,57.0,57.0,30.08,NNW,341,14.0,21.0,100,0.00,,,0.00,,2013-07-15 03:11:00,
2013-07-14 20:21:00,56.0,56.0,30.07,NW,317,12.0,20.0,100,0.00,,,0.00,,2013-07-15 03:21:00,
2013-07-14 20:32:00,56.0,56.0,30.07,NW,317,12.0,20.0,100,0.00,,,0.00,,2013-07-15 03:32:00,
2013-07-14 20:42:00,56.0,56.0,30.08,WNW,302,12.0,19.0,100,0.00,,,0.00,,2013-07-15 03:42:00,
2013-07-14 20:53:00,55.0,55.0,30.07,WNW,302,13.0,22.0,100,0.00,,,0.00,,2013-07-15 03:53:00,
2013-07-14 21:01:00,55.0,55.0,30.07,WNW,302,13.0,22.0,100,0.00,,,0.00,,2013-07-15 04:01:00,
2013-07-14 21:11:00,55.0,55.0,30.08,NNW,336,12.0,17.0,100,0.00,,,0.00,,2013-07-15 04:11:00,
2013-07-14 21:22:00,55.0,55.0,30.08,NNW,336,12.0,17.0,100,0.00,,,0.00,,2013-07-15 04:22:00,
2013-07-14 21:32:00,55.0,55.0,30.08,NW,317,8.0,17.0,100,0.00,,,0.00,,2013-07-15 04:32:00,
2013-07-14 21:42:00,55.0,55.0,30.08,NW,309,11.0,15.0,100,0.00,,,0.00,,2013-07-15 04:42:00,
2013-07-14 21:53:00,55.0,55.0,30.08,NNW,330,9.0,16.0,100,0.00,,,0.00,,2013-07-15 04:53:00,
2013-07-14 22:02:00,55.0,55.0,30.08,NNW,330,9.0,16.0,100,0.00,,,0.00,,2013-07-15 05:02:00,
2013-07-14 22:11:00,55.0,55.0,30.08,NW,313,10.0,16.0,100,0.00,,,0.00,,2013-07-15 05:11:00,
2013-07-14 22:32:00,55.0,55.0,30.09,WNW,299,9.0,12.0,100,0.00,,,0.00,,2013-07-15 05:32:00,
2013-07-14 22:43:00,55.0,55.0,30.08,NNW,332,9.0,15.0,100,0.00,,,0.00,,2013-07-15 05:43:00,
2013-07-14 22:53:00,55.0,55.0,30.09,NW,321,7.0,12.0,100,0.00,,,0.00,,2013-07-15 05:53:00,
2013-07-14 23:02:00,55.0,55.0,30.09,NW,321,7.0,12.0,100,0.00,,,0.00,,2013-07-15 06:02:00,
2013-07-14 23:11:00,55.0,55.0,30.08,NW,320,5.0,10.0,100,0.00,,,0.00,,2013-07-15 06:11:00,
2013-07-14 23:22:00,55.0,55.0,30.09,NW,305,5.0,10.0,100,0.00,,,0.00,,2013-07-15 06:22:00,
2013-07-14 23:32:00,55.0,55.0,30.09,NW,305,5.0,10.0,100,0.00,,,0.00,,2013-07-15 06:32:00,
2013-07-14 23:42:00,54.0,54.0,30.09,NW,304,5.0,7.0,100,0.00,,,0.00,,2013-07-15 06:42:00,
2013-07-14 23:53:00,55.0,55.0,30.09,NNW,342,3.0,7.0,100,0.00,,,0.00,,2013-07-15 06:53:00,